Weather History for Hobbs, NM

Change the Weather History Date:

Sunday, October 7, 2012

  Actual Average Record
Temperature  
Mean Temperature 44 °F -  
Max Temperature 50 °F 78 °F 86 °F (1949)
Min Temperature 37 °F 52 °F 34 °F (1952)
Degree Days  
Heating Degree Days 22    
Moisture  
Dew Point 29 °F    
Average Humidity 61    
Maximum Humidity 81    
Minimum Humidity 45    
Precipitation  
Precipitation 0.00 in - - ()
Sea Level Pressure  
Sea Level Pressure 30.24 in    
Wind  
Wind Speed 8 mph (ENE)    
Max Wind Speed 15 mph    
Max Gust Speed 21 mph    
Visibility 10 miles    
Events      
Averages and records for this station are not official NWS values.
T = Trace of Precipitation, MM = Missing Value Source: NWS Daily Summary

Daily Weather History Graph

Daily Weather History Graph

Search for Another Location

Airport:

Trip Planner

Search our weather history database for the weather conditions in past years. The results will help you decide how hot, cold, wet, or windy it might be!

Date:

Astronomy

Oct. 07, 2012 Rise Set
Actual Time 6:51 AM MDT 6:29 PM MDT
Civil Twilight 6:26 AM MDT 6:53 PM MDT
Nautical Twilight 5:58 AM MDT 7:22 PM MDT
Astronomical Twilight 5:29 AM MDT 7:50 PM MDT
Moon 11:55 PM MDT (10/7) 1:17 PM MDT (10/7)
Length of Visible Light 12h 26m
Length of Day
11h 37m
Waning Gibbous, 55% of the Moon is Illuminated
Oct 7
Waning Gibbous
Oct 8
Last Quarter
Oct 15
New
Oct 21
First Quarter
Oct 29
Full

Hourly Weather History & Observations

Time (MDT) Temp. Windchill Dew Point Humidity Pressure Visibility Wind Dir Wind Speed Gust Speed Precip Events Conditions
12:15 AM 41.0 °F 33.5 °F 28.4 °F 61% 30.28 in 10.0 mi NE 13.8 mph - N/A   Overcast
12:35 AM 41.0 °F 33.9 °F 28.4 °F 61% 30.29 in 10.0 mi NE 12.7 mph 18.4 mph N/A   Overcast
12:55 AM 41.0 °F 33.5 °F 28.4 °F 61% 30.28 in 10.0 mi NE 13.8 mph 18.4 mph N/A   Overcast
1:15 AM 41.0 °F 33.1 °F 26.6 °F 57% 30.28 in 10.0 mi NE 15.0 mph 19.6 mph N/A   Overcast
1:35 AM 41.0 °F 33.5 °F 26.6 °F 57% 30.28 in 10.0 mi NNE 13.8 mph 20.7 mph N/A   Overcast
1:55 AM 41.0 °F 34.3 °F 26.6 °F 57% 30.29 in 10.0 mi NE 11.5 mph 17.3 mph N/A   Overcast
2:15 AM 41.0 °F 33.5 °F 26.6 °F 57% 30.29 in 10.0 mi NE 13.8 mph - N/A   Overcast
2:55 AM 41.0 °F 33.1 °F 26.6 °F 57% 30.28 in 10.0 mi NE 15.0 mph - N/A   Overcast
3:15 AM 41.0 °F 33.5 °F 26.6 °F 57% 30.27 in 10.0 mi ENE 13.8 mph - N/A   Overcast
3:35 AM 39.2 °F 31.6 °F 24.8 °F 56% 30.27 in 10.0 mi NE 12.7 mph 18.4 mph N/A   Overcast
3:55 AM 39.2 °F 32.5 °F 24.8 °F 56% 30.26 in 10.0 mi NE 10.4 mph - N/A   Overcast
4:15 AM 39.2 °F 33.0 °F 23.0 °F 52% 30.27 in 10.0 mi ENE 9.2 mph - N/A   Overcast
4:35 AM 39.2 °F 33.0 °F 19.4 °F 45% 30.27 in 10.0 mi ENE 9.2 mph - N/A   Overcast
4:55 AM 39.2 °F 34.2 °F 23.0 °F 52% 30.27 in 10.0 mi NE 6.9 mph - N/A   Overcast
5:50 AM 39.2 °F 33.6 °F 23.0 °F 52% 30.28 in 10.0 mi NE 8.1 mph - N/A   Overcast
6:50 AM 39.2 °F 34.2 °F 24.8 °F 56% 30.28 in 10.0 mi ENE 6.9 mph - N/A   Overcast
7:50 AM 39.2 °F 34.2 °F 26.6 °F 61% 30.29 in 10.0 mi NE 6.9 mph - N/A   Overcast
8:50 AM 39.2 °F 34.2 °F 26.6 °F 61% 30.30 in 10.0 mi ENE 6.9 mph - N/A   Overcast
9:50 AM 41.0 °F 37.1 °F 24.8 °F 53% 30.30 in 10.0 mi ENE 5.8 mph - N/A   Overcast
11:45 AM 44.6 °F 43.1 °F 26.6 °F 49% 30.25 in 10.0 mi ESE 3.5 mph - N/A   Overcast
12:50 PM 46.4 °F 42.9 °F 28.4 °F 50% 30.23 in 10.0 mi ESE 6.9 mph - N/A   Overcast
1:32 PM 48.2 °F - 30.2 °F 50% 30.20 in 10.0 mi ESE 5.8 mph - N/A   Overcast
1:45 PM 48.2 °F - 32.0 °F 54% 30.19 in 10.0 mi Calm Calm - N/A   Overcast
2:45 PM 48.2 °F - 32.0 °F 54% 30.17 in 10.0 mi Calm Calm - N/A   Overcast
3:45 PM 50.0 °F - 32.0 °F 50% 30.16 in 10.0 mi Calm Calm - N/A   Overcast
4:45 PM 50.0 °F - 32.0 °F 50% 30.15 in 10.0 mi Calm Calm - N/A   Scattered Clouds
5:45 PM 50.0 °F - 32.0 °F 50% 30.16 in 10.0 mi Calm Calm - N/A   Clear
6:15 PM 48.2 °F - 32.0 °F 54% 30.17 in 10.0 mi East 8.1 mph - N/A   Clear
6:35 PM 46.4 °F 41.9 °F 32.0 °F 57% 30.17 in 10.0 mi East 9.2 mph - N/A   Clear
6:55 PM 46.4 °F 43.5 °F 32.0 °F 57% 30.18 in 10.0 mi East 5.8 mph - N/A   Clear
7:15 PM 44.6 °F - 32.0 °F 61% 30.19 in 10.0 mi Calm Calm - N/A   Clear
7:35 PM 44.6 °F 42.2 °F 32.0 °F 61% 30.20 in 10.0 mi East 4.6 mph - N/A   Clear
7:55 PM 42.8 °F - 32.0 °F 66% 30.20 in 10.0 mi Calm Calm - N/A   Clear
8:15 PM 42.8 °F - 32.0 °F 66% 30.21 in 10.0 mi Calm Calm - N/A   Clear
8:35 PM 41.0 °F - 32.0 °F 70% 30.22 in 10.0 mi Calm Calm - N/A   Clear
8:55 PM 41.0 °F 39.0 °F 32.0 °F 70% 30.22 in 10.0 mi East 3.5 mph - N/A   Clear
9:15 PM 41.0 °F - 32.0 °F 70% 30.23 in 10.0 mi Calm Calm - N/A   Clear
9:35 PM 41.0 °F - 32.0 °F 70% 30.23 in 10.0 mi Calm Calm - N/A   Clear
9:55 PM 39.2 °F - 32.0 °F 75% 30.23 in 10.0 mi Calm Calm - N/A   Clear
10:15 PM 39.2 °F - 32.0 °F 75% 30.23 in 10.0 mi Calm Calm - N/A   Clear
10:35 PM 37.4 °F - 32.0 °F 81% 30.23 in 10.0 mi Calm Calm - N/A   Clear
10:55 PM 37.4 °F - 32.0 °F 81% 30.23 in 10.0 mi Calm Calm - N/A   Clear
11:15 PM 37.4 °F - 32.0 °F 81% 30.23 in 10.0 mi Calm Calm - N/A   Clear
11:35 PM 37.4 °F - 32.0 °F 81% 30.22 in 10.0 mi Calm Calm - N/A   Clear
11:55 PM 37.4 °F - 32.0 °F 81% 30.22 in 10.0 mi Calm Calm - N/A   Clear